Date String (YYYY-MM-DD hh:mm:ss) UTC,Instrument flags,absolute air pressure of the measurement (hPa),sample flow rate (lpm),inlet stack bypass flow (lpm),air temperature of the measurement (°C),ambient temperature measured by the external sensor (°C),aerosol sample conditioner tube jacket temperature (°C),OPC LED temperature (°C),internal box temperature (°C),relative humidity of the measurement (%),span deviation,mass concentration of particles derived from Lorenz-Mie calculation of OPC scattering (μg/m³),mass concentration of particles derived from Lorenz-Mie calculation of OPC scattering (μg/m³),mass concentration of particles derived from Lorenz-Mie calculation of OPC scattering (μg/m³)
DateTimeUTC,F1_M11,P_M11,Q1_M11,Q2_M11,T1_M11,T2_M11,T3_M11,T4_M11,T5_M11,U1_M11,ZSPAN_M11,X0_M11,X2_M11,X1_M11
2023-12-17 17:00:00,SystemResetWarning,0833.5,5.01,000.00,024.2,023.5,000.0,032.4,025.7,7.6,0000.0,0002.81,0000.81,0000.67
2023-12-17 17:01:00,SystemResetWarning,0833.5,5.00,000.00,024.3,023.6,000.0,032.4,025.6,7.3,0000.0,0003.01,0000.85,0000.66
2023-12-17 17:02:00,SystemResetWarning,0833.6,5.00,000.00,024.3,023.6,000.0,032.4,025.7,7.4,0000.0,0003.04,0000.86,0000.66
2023-12-17 17:03:00,SystemResetWarning,0833.7,4.99,000.00,024.3,023.6,000.0,032.4,025.7,7.5,0000.0,0003.05,0000.86,0000.67
2023-12-17 17:04:00,SystemResetWarning,0833.7,5.00,000.00,024.3,023.6,000.0,032.5,025.7,7.5,0000.0,0002.18,0000.85,0000.67
2023-12-17 17:05:00,SystemResetWarning,0833.7,5.00,000.00,024.4,023.7,000.0,032.5,025.7,8.0,0000.0,0001.27,0000.84,0000.68
2023-12-17 17:06:00,SystemResetWarning,0833.7,5.00,000.00,024.4,023.7,000.0,032.5,025.8,9.3,0000.0,0001.23,0000.83,0000.68
2023-12-17 17:07:00,SystemResetWarning,0833.7,5.01,000.00,024.4,023.7,000.0,032.5,025.9,9.3,0000.0,0001.19,0000.80,0000.67
2023-12-17 17:08:00,SystemResetWarning,0833.6,5.00,000.00,024.4,023.7,000.0,032.5,025.9,9.4,0000.0,0001.22,0000.81,0000.66
2023-12-17 17:09:00,SystemResetWarning,0833.7,4.99,000.00,024.4,023.8,000.0,032.5,025.9,9.3,0000.0,0001.37,0000.84,0000.66
2023-12-17 17:10:00,SystemResetWarning,0833.7,5.00,000.00,024.5,023.8,000.0,032.5,025.9,9.3,0000.0,0001.62,0000.89,0000.67
2023-12-17 17:11:00,SystemResetWarning,0833.7,5.00,000.00,024.5,023.8,000.0,032.6,025.9,9.4,0000.0,0001.69,0000.95,0000.69
2023-12-17 17:12:00,SystemResetWarning,0833.7,5.01,000.00,024.5,023.8,000.0,032.6,026.0,9.7,0000.0,0001.54,0000.94,0000.72
2023-12-17 17:13:00,SystemResetWarning,0833.6,5.01,000.00,024.5,023.9,000.0,032.6,026.0,9.5,0000.0,0001.54,0000.95,0000.73
2023-12-17 17:14:00,SystemResetWarning,0833.6,4.99,000.00,024.5,023.9,000.0,032.6,026.0,9.0,0000.0,0001.57,0000.97,0000.75
2023-12-17 17:15:00,SystemResetWarning,0833.6,4.99,000.00,024.6,023.9,000.0,032.6,026.0,8.8,0000.0,0001.72,0001.01,0000.77
2023-12-17 17:16:00,SystemResetWarning,0833.6,4.99,000.00,024.6,023.9,000.0,032.7,026.0,9.2,0000.0,0001.82,0001.05,0000.79
2023-12-17 17:17:00,SystemResetWarning,0833.6,5.01,000.00,024.6,024.0,000.0,032.7,026.1,9.1,0000.0,0001.87,0001.08,0000.80
2023-12-17 17:18:00,SystemResetWarning,0833.6,5.01,000.00,024.6,024.0,000.0,032.7,026.1,8.9,0000.0,0001.84,0001.08,0000.81
2023-12-17 17:19:00,SystemResetWarning,0833.5,4.98,000.00,024.7,024.0,000.0,032.7,026.1,9.1,0000.0,0001.82,0001.07,0000.82
2023-12-17 17:20:00,SystemResetWarning,0833.5,4.99,000.00,024.7,024.0,000.0,032.7,026.1,8.9,0000.0,0001.72,0001.06,0000.83
2023-12-17 17:21:00,SystemResetWarning,0833.5,5.01,000.00,024.7,024.1,000.0,032.8,026.2,8.5,0000.0,0001.47,0001.01,0000.82
2023-12-17 17:22:00,SystemResetWarning,0833.4,5.01,000.00,024.7,024.1,000.0,032.8,026.2,8.3,0000.0,0001.42,0000.97,0000.81
2023-12-17 17:23:00,SystemResetWarning,0833.4,5.00,000.00,024.7,024.1,000.0,032.8,026.2,8.5,0000.0,0001.40,0000.95,0000.79
2023-12-17 17:24:00,SystemResetWarning,0833.4,4.99,000.00,024.8,024.2,000.0,032.8,026.3,8.5,0000.0,0001.39,0000.94,0000.79
2023-12-17 17:25:00,SystemResetWarning,0833.4,5.00,000.00,024.8,024.2,000.0,032.8,026.3,8.4,0000.0,0001.35,0000.93,0000.78
2023-12-17 17:26:00,SystemResetWarning,0833.4,5.00,000.00,024.8,024.2,000.0,032.9,026.3,8.6,0000.0,0001.25,0000.93,0000.77
2023-12-17 17:27:00,SystemResetWarning,0833.5,5.01,000.00,024.9,024.2,000.0,032.9,026.3,8.6,0000.0,0001.22,0000.90,0000.77
2023-12-17 17:28:00,SystemResetWarning,0833.5,5.00,000.00,024.9,024.3,000.0,032.9,026.3,8.7,0000.0,0001.25,0000.88,0000.76
2023-12-17 17:29:00,SystemResetWarning,0833.6,5.00,000.00,024.9,024.3,000.0,032.9,026.3,8.8,0000.0,0001.29,0000.88,0000.76
2023-12-17 17:30:00,SystemResetWarning,0833.6,4.99,000.00,024.9,024.3,000.0,032.9,026.4,8.7,0000.0,0001.63,0000.89,0000.76
2023-12-17 17:31:00,SystemResetWarning,0833.6,4.99,000.00,024.9,024.4,000.0,033.0,026.4,8.8,0000.0,0001.84,0000.88,0000.76
2023-12-17 17:32:00,SystemResetWarning,0833.6,4.99,000.00,025.0,024.4,000.0,033.0,026.4,8.6,0000.0,0001.84,0000.88,0000.76
2023-12-17 17:33:00,SystemResetWarning,0833.6,5.00,000.00,025.0,024.4,000.0,033.0,026.5,8.6,0000.0,0001.83,0000.88,0000.77
2023-12-17 17:34:00,SystemResetWarning,0833.6,5.02,000.00,025.0,024.4,000.0,033.0,026.5,8.8,0000.0,0001.85,0000.89,0000.76
2023-12-17 17:35:00,SystemResetWarning,0833.6,5.00,000.00,025.0,024.4,000.0,033.1,026.5,8.8,0000.0,0001.85,0000.89,0000.77
2023-12-17 17:36:00,SystemResetWarning,0833.5,4.99,000.00,025.0,024.4,000.0,033.1,026.5,8.4,0000.0,0001.94,0000.92,0000.77
2023-12-17 17:37:00,SystemResetWarning,0833.5,4.99,000.00,025.1,024.4,000.0,033.1,026.5,8.5,0000.0,0002.02,0000.95,0000.78
2023-12-17 17:38:00,SystemResetWarning,0833.6,5.01,000.00,025.1,024.4,000.0,033.1,026.5,8.3,0000.0,0002.05,0000.96,0000.78
2023-12-17 17:39:00,SystemResetWarning,0833.5,5.00,000.00,025.1,024.5,000.0,033.1,026.5,8.5,0000.0,0002.10,0000.98,0000.78
2023-12-17 17:40:00,SystemResetWarning,0833.4,5.01,000.00,025.1,024.5,000.0,033.2,026.6,8.7,0000.0,0002.04,0000.99,0000.78
2023-12-17 17:41:00,SystemResetWarning,0833.4,5.01,000.00,025.1,024.5,000.0,033.2,026.6,8.7,0000.0,0001.75,0000.99,0000.78
2023-12-17 17:42:00,SystemResetWarning,0833.4,5.00,000.00,025.2,024.5,000.0,033.2,026.6,8.2,0000.0,0001.50,0001.00,0000.78
2023-12-17 17:43:00,SystemResetWarning,0833.4,5.00,000.00,025.2,024.6,000.0,033.2,026.6,8.3,0000.0,0001.58,0001.04,0000.78
2023-12-17 17:44:00,SystemResetWarning,0833.4,4.99,000.00,025.2,024.6,000.0,033.2,026.7,8.6,0000.0,0001.61,0001.06,0000.78
2023-12-17 17:45:00,SystemResetWarning,0833.4,5.00,000.00,025.2,024.6,000.0,033.3,026.7,8.7,0000.0,0001.59,0001.05,0000.78
2023-12-17 17:46:00,SystemResetWarning,0833.4,4.99,000.00,025.3,024.6,000.0,033.3,026.7,9.0,0000.0,0001.53,0001.02,0000.78
2023-12-17 17:47:00,SystemResetWarning,0833.4,5.00,000.00,025.3,024.6,000.0,033.3,026.7,8.7,0000.0,0001.44,0000.99,0000.77
2023-12-17 17:48:00,SystemResetWarning,0833.4,5.00,000.00,025.3,024.7,000.0,033.3,026.8,8.5,0000.0,0001.34,0000.94,0000.76
2023-12-17 17:49:00,SystemResetWarning,0833.4,5.01,000.00,025.3,024.7,000.0,033.4,026.8,8.6,0000.0,0001.27,0000.93,0000.77
2023-12-17 17:50:00,SystemResetWarning,0833.4,5.00,000.00,025.3,024.7,000.0,033.4,026.8,8.3,0000.0,0001.21,0000.92,0000.77
2023-12-17 17:51:00,SystemResetWarning,0833.4,5.00,000.00,025.3,024.7,000.0,033.4,026.8,8.2,0000.0,0001.17,0000.92,0000.78
2023-12-17 17:52:00,SystemResetWarning,0833.4,5.00,000.00,025.4,024.7,000.0,033.4,026.8,8.1,0000.0,0001.30,0000.94,0000.78
2023-12-17 17:53:00,SystemResetWarning,0833.4,5.00,000.00,025.4,024.8,000.0,033.4,026.8,8.0,0000.0,0001.37,0000.96,0000.79
2023-12-17 17:54:00,SystemResetWarning,0833.3,5.00,000.00,025.4,024.8,000.0,033.5,026.8,7.7,0000.0,0001.35,0000.94,0000.80
2023-12-17 17:55:00,SystemResetWarning,0833.3,5.00,000.00,025.4,024.8,000.0,033.5,026.9,8.0,0000.0,0001.36,0000.94,0000.79
2023-12-17 17:56:00,SystemResetWarning,0833.3,5.00,000.00,025.5,024.8,000.0,033.5,026.9,8.3,0000.0,0001.39,0000.97,0000.79
2023-12-17 17:57:00,SystemResetWarning,0833.3,5.01,000.00,025.5,024.8,000.0,033.5,026.9,7.9,0000.0,0001.42,0000.98,0000.79
2023-12-17 17:58:00,SystemResetWarning,0833.3,5.00,000.00,025.5,024.9,000.0,033.5,027.0,7.7,0000.0,0001.53,0001.03,0000.80
2023-12-17 17:59:00,SystemResetWarning,0833.3,5.00,000.00,025.5,024.9,000.0,033.6,027.0,7.8,0000.0,0001.62,0001.05,0000.78
